Flag for U.S.A. Weather past 2 weeks in Denver, Colorado, U.S.A.

Now
83 °F

Passing clouds.


Feels Like: 81 °F
Forecast: 58 / 84 °F
Wind: 8 mph from North

Location: Buckley Air Force Base

Current Time: Aug 28, 2015 at 5:22:23 PM

Latest Report: Aug 28, 2015 at 3:58 PM


Visibility: 10 mi

Pressure: 30.01 "Hg (25.05 "Hg at 1593m altitude)

Humidity: 25%

Dew point: 43 °F

Location of DenverLocation

Historic Weather in Denver — Graph

°F

Denver temperature yesterday

Maximum temperature yesterday: 85 °F (at 2:58 PM)
Minimum temperature yesterday: 62 °F (at 2:58 AM)
Average temperature yesterday: 70 °F

Past Weeks' High & Low Weather Summary

 TemperatureHumidityPressure
High96 °F (Aug 15, 2:58 PM)100% (Aug 18, 1:58 AM)30.21 "Hg (Aug 18, 1:58 AM)
Low45 °F (Aug 23, 5:58 AM)11% (Aug 21, 12:58 PM)29.65 "Hg (Aug 21, 4:58 PM)
Average70 °F49%29.95 "Hg
* Reported Aug 13 2:58 PM — Aug 28 2:58 PM, Denver, Weather by CustomWeather, © 2015

Note: Actual official high and low records may vary slightly from our data, if they occured in-between our weather recording intervals... More about our weather records

Advertising

Denver weather history for previous 24 hours

 ConditionsComfort  
Time TempWeatherWind HumidityBarometerVisibility
2:58 PM
Fri, Aug 28
83 °FPassing clouds.10 mph25%30.02 "Hg10 mi
1:58 PM82 °FScattered clouds.6 mph26%30.03 "Hg10 mi
12:58 PM81 °FScattered clouds.17 mph27%30.05 "Hg10 mi
11:58 AM79 °FScattered clouds.9 mph29%30.06 "Hg10 mi
10:58 AM78 °FBroken clouds.12 mph32%30.07 "Hg10 mi
9:58 AM72 °FBroken clouds.6 mph48%30.06 "Hg10 mi
8:58 AM68 °FScattered clouds.6 mph59%30.06 "Hg10 mi
7:58 AM62 °FScattered clouds.6 mph77%30.06 "Hg10 mi
6:58 AM57 °FPassing clouds.6 mph91%30.03 "Hg10 mi
5:58 AM57 °FPassing clouds.5 mph100%30.04 "Hg10 mi
4:58 AM58 °FPassing clouds.6 mph93%30.01 "Hg10 mi
4:04 AM61 °FPassing clouds.5 mph88%30.21 "Hg10 mi
3:58 AM62 °FLight rain. Partly cloudy.3 mph83%29.99 "Hg10 mi
2:58 AM60 °FPassing clouds.7 mph81%29.97 "Hg10 mi
1:58 AM61 °FPassing clouds.7 mph79%29.98 "Hg10 mi
12:58 AM62 °FPassing clouds.3 mph79%29.98 "Hg10 mi
11:58 PM
Thu, Aug 27
62 °FPassing clouds.6 mph81%29.98 "Hg10 mi
10:58 PM63 °FPassing clouds.7 mph81%29.98 "Hg10 mi
9:58 PM65 °FPartly cloudy.8 mph78%29.98 "Hg10 mi
8:58 PM68 °FPartly cloudy.8 mph67%29.96 "Hg10 mi
7:58 PM70 °FPartly sunny.3 mph58%29.97 "Hg10 mi
6:58 PM73 °FPartly sunny.6 mph52%29.94 "Hg10 mi
5:58 PM68 °FBroken clouds.2 mph77%29.98 "Hg10 mi
Weather by CustomWeather, © 2015

See weather overviewHow to use our weather pages